Regional Weather Roundup
Issued by NWS

Home | Current Version | Previous Version | Text Only | Print | Product List | Glossary Off
Versions: 1 2 3 4 5 6 7 8 9 10 11 12 13 14 15 16 17 18 19 20 21 22 23 24 25 26 27 28 29 30 31 32 33 34 35 36 37 38 39 40 41 42 43 44 45 46 47 48 49 50

000
ASUS43 KBIS 092002
RWRND

NORTH DAKOTA REGIONAL WEATHER ROUNDUP
NATIONAL WEATHER SERVICE BISMARCK ND
200 PM CST FRI DEC 09 2016

NOTE: "FAIR" INDICATES FEW OR NO CLOUDS BELOW 12,000 FEET WITH NO
SIGNIFICANT WEATHER AND/OR OBSTRUCTIONS TO VISIBILITY.


NDZ001>003-009>011-017-092100-
NORTHWEST NORTH DAKOTA

CITY           SKY/WX    TMP DP  RH WIND       PRES   REMARKS
WILLISTON      SUNNY     -3 -11  68 CALM      30.55F
MINOT          SUNNY     -9 -15  75 NW12      30.53F WCI -28
MINOT AFB      SUNNY    -10 -17  74 NW10      30.53F WCI -29
$$

NDZ018>021-031>035-040>046-092100-
SOUTHWEST NORTH DAKOTA

CITY           SKY/WX    TMP DP  RH WIND       PRES   REMARKS
BISMARCK       PTSUNNY   -1  -7  75 NW12      30.54F WCI -18
DICKINSON      SUNNY     -6 -11  79 W6        30.43F WCI -19
GARRISON         N/A     -6 -12  75 NW12      30.51F WCI -25
HETTINGER ARPT MOSUNNY   -1  -7  75 N5        30.43F WCI -11
$$

NDZ004>008-012>016-024-026-027-054-092100-
NORTHEAST NORTH DAKOTA

CITY           SKY/WX    TMP DP  RH WIND       PRES   REMARKS
GRAND FORKS    PTSUNNY    2  -8  63 NW10      30.57S WCI -14
GRND FRKS AFB  SUNNY      1 -10  60 NW7       30.56F WCI -11
DEVILS LAKE    SUNNY     -5 -11  75 NW13      30.52F WCI -24
$$

NDZ022-023-025-028>030-036>039-047>053-092100-
SOUTHEAST NORTH DAKOTA

CITY           SKY/WX    TMP DP  RH WIND       PRES   REMARKS
FARGO          MOSUNNY    6  -2  69 NW9       30.56S WCI  -8
JAMESTOWN      SUNNY     -2  -8  76 NW15      30.52F WCI -22
$$




USA.gov is the U.S. government's official web portal to all federal, state and local government web resources and services.